[[{"header":{"parameterUnit":"m.s-1","parameterCategory":2,"la1":30.2991,"la2":30.254,"lo1":-89.0895,"lo2":-89.0444,"dy":0.0017,"dx":0.0017,"nx":28,"ny":28,"refTime":"2023-03-29T21:00:00:Z","depth":"0","parameterNumber":2,"parameterNumberName":"U-component_of_CURRENTS"},"data":[0,0,0,0,0,0,0,0,0,0,0,0,0,0,0,0,0,0,0,0,0,0,0,0,0,0,0,0,0,0,0,0,0,0,0,0,0,0,0,0,0,0,0,0,0,0,0,0,0,0,0,0,0,0,0,0,0,0,-0.2201,-0.2202,0,-0.2278,-0.2279,-0.2279,-0.23,-0.23,-0.23,-0.23,-0.2333,-0.2334,-0.2335,0,0,0,0,0,0,0,0,0,0,0,0,0,-0.2089,-0.209,-0.2201,-0.2202,-0.2204,-0.2278,-0.2279,-0.2279,-0.23,-0.23,-0.23,-0.23,-0.2333,-0.2334,-0.2335,0,0,0,0,0,0,0,0,0,0,0,0,0,-0.2145,-0.2091,-0.2201,-0.2226,-0.2229,-0.2278,-0.2279,-0.2279,-0.23,-0.23,-0.23,-0.2299,-0.2332,-0.2334,-0.2335,-0.2347,0,0,-0.234,-0.234,0,0,0,0,0,0,0,0,-0.2142,-0.2149,-0.2221,-0.2224,-0.2228,-0.2283,-0.2252,-0.2301,-0.23,-0.2269,-0.23,-0.2299,-0.2315,-0.2318,-0.2328,-0.2349,-0.235,-0.234,-0.2341,-0.2341,-0.2342,0,0,0,0,0,0,0,-0.2138,-0.2146,-0.2227,-0.2222,-0.2227,-0.2239,-0.2246,-0.2261,-0.2288,-0.2272,-0.2274,-0.2289,-0.2316,-0.2326,-0.2328,-0.2351,-0.234,-0.2341,-0.2342,-0.2343,-0.237,-0.237,0,0,0,0,0,0,-0.2136,-0.2142,-0.2225,-0.223,-0.2188,-0.2242,-0.2249,-0.2262,-0.2289,-0.2294,-0.2289,-0.229,-0.2324,-0.2327,-0.233,-0.2328,-0.2341,-0.2343,-0.2344,-0.2371,-0.237,-0.237,0,0,0,0,0,0,-0.2133,-0.2142,-0.2222,-0.2191,-0.2202,-0.2244,-0.2258,-0.2264,-0.2278,-0.2303,-0.2307,-0.2298,-0.2324,-0.2328,-0.2348,-0.233,-0.2343,-0.2345,-0.2371,-0.2371,-0.237,-0.2336,0,0,0,0,0,0,-0.2129,-0.2141,-0.2151,-0.2191,-0.2204,-0.225,-0.2258,-0.2265,-0.2289,-0.2291,-0.2313,-0.2315,-0.2324,-0.2346,-0.2349,-0.2333,-0.2346,-0.2371,-0.2371,-0.237,-0.2338,-0.2335,-0.2333,0,0,0,0,0,-0.2125,-0.2145,-0.2151,-0.2162,-0.2216,-0.2251,-0.2258,-0.2285,-0.229,-0.2296,-0.2314,-0.2315,-0.2346,-0.2347,-0.2351,-0.2335,-0.2371,-0.2371,-0.237,-0.2339,-0.2336,-0.2333,0,0,0,0,0,0,-0.212,-0.2151,-0.2158,-0.2191,-0.2216,-0.2256,-0.2274,-0.2287,-0.2306,-0.2309,-0.2323,-0.2327,-0.2334,-0.2346,-0.2347,-0.2342,-0.2355,-0.2355,-0.2329,-0.2326,-0.2324,-0.2341,-0.2347,0,0,0,0,0,-0.2119,-0.2132,-0.2167,-0.2194,-0.2206,-0.2237,-0.2256,-0.2272,-0.2297,-0.2306,-0.2317,-0.2329,-0.2336,-0.2341,-0.2352,-0.2358,-0.238,-0.2347,-0.2344,-0.2342,-0.2359,-0.2356,-0.2355,-0.2369,-0.2369,-0.2369,0,0,-0.213,-0.2147,-0.2159,-0.2192,-0.2214,-0.224,-0.2247,-0.2277,-0.2295,-0.2306,-0.2326,-0.2324,-0.2337,-0.2339,-0.2341,-0.2346,-0.2354,-0.2342,-0.234,-0.2359,-0.2355,-0.2354,-0.2353,-0.2369,-0.2369,-0.2369,0,0,-0.2152,-0.2166,-0.2181,-0.2198,-0.2229,-0.2247,-0.2255,-0.2286,-0.2293,-0.2312,-0.2317,-0.2306,-0.2328,-0.2322,-0.2325,-0.2318,-0.2342,-0.2318,-0.2318,-0.2314,-0.2312,-0.2312,-0.2357,-0.236,-0.2315,-0.2315,-0.2315,0,-0.2172,-0.2188,-0.2194,-0.2211,-0.2235,-0.225,-0.2278,-0.2289,-0.2319,-0.233,-0.2315,-0.2328,-0.2318,-0.2324,-0.2311,-0.231,-0.2337,-0.2325,-0.231,-0.2309,-0.2309,-0.2356,-0.236,-0.2313,-0.2313,-0.2313,-0.2314,0,-0.2195,-0.2215,-0.2228,-0.225,-0.2271,-0.2299,-0.2316,-0.233,-0.2333,-0.2341,-0.2341,-0.232,-0.2331,-0.2305,-0.2305,-0.2296,-0.2328,-0.2306,-0.2315,-0.2305,-0.2356,-0.2361,-0.2311,-0.2311,-0.2312,-0.2312,0,0,-0.2233,-0.2244,-0.2249,-0.2266,-0.2294,-0.2319,-0.2343,-0.2374,-0.2405,-0.2379,-0.2406,-0.2361,-0.2345,-0.2348,-0.2326,-0.2304,-0.2305,-0.2305,-0.2305,-0.2349,-0.2344,-0.2471,-0.2489,-0.2282,-0.2282,-0.2282,-0.2386,0,-0.2259,-0.2287,-0.2289,-0.2334,-0.2358,-0.2376,-0.2404,-0.2427,-0.2439,-0.2462,-0.2413,-0.2423,-0.2363,-0.2363,-0.2328,-0.2323,-0.2315,-0.2283,-0.235,-0.2353,-0.2465,-0.2497,-0.2286,-0.2371,-0.2392,-0.2392,-0.2393,0,-0.2276,-0.2297,-0.233,-0.238,-0.2395,-0.242,-0.248,-0.2507,-0.2532,-0.2537,-0.2523,-0.2508,-0.2479,-0.2418,-0.2399,-0.2388,-0.2369,-0.2349,-0.2352,-0.249,-0.249,-0.2381,-0.2379,-0.231,-0.2401,-0.24,-0.24,0,-0.2281,-0.233,-0.2354,-0.2369,-0.2421,-0.2447,-0.2482,-0.2525,-0.2559,-0.2585,-0.2617,-0.2583,-0.2587,-0.2533,-0.2508,-0.2453,-0.2513,-0.2429,-0.253,-0.254,-0.2387,-0.2385,-0.2323,-0.2414,-0.2414,-0.2413,-0.2413,0,-0.2299,-0.2323,-0.2357,-0.2372,-0.2423,-0.246,-0.2518,-0.2553,-0.2609,-0.2675,-0.265,-0.2706,-0.2613,-0.2642,-0.2571,-0.2617,-0.2569,-0.2564,-0.2579,-0.2376,-0.2372,-0.2329,-0.2337,-0.2417,-0.2416,-0.2416,-0.2415,0,-0.2282,-0.2303,-0.2339,-0.2397,-0.2416,-0.245,-0.253,-0.2595,-0.2642,-0.2732,-0.2745,-0.2807,-0.2871,-0.2827,-0.2793,-0.2745,-0.2695,-0.2759,-0.2573,-0.2566,-0.2593,-0.2609,-0.2672,-0.2618,-0.2872,-0.2876,-0.2879,0,-0.2271,-0.2277,-0.2334,-0.2373,-0.2395,-0.2452,-0.2516,-0.2584,-0.2659,-0.2812,-0.287,-0.2978,-0.3043,-0.3094,-0.3009,-0.2969,-0.2869,-0.2801,-0.2645,-0.2614,-0.2637,-0.2624,-0.2568,-0.2414,-0.2413,-0.2413,-0.2412,0,-0.2244,-0.2251,-0.2282,-0.2352,-0.2417,-0.248,-0.257,-0.2621,-0.2745,-0.2819,-0.297,-0.3037,-0.3149,-0.3038,-0.3051,-0.2981,-0.2712,-0.2797,-0.274,-0.2296,-0.2291,-0.2237,-0.2382,-0.2406,-0.2407,-0.2407,-0.2407,-0.2408,-0.2211,-0.222,-0.2257,-0.2318,-0.2406,-0.2476,-0.246,-0.2577,-0.2643,-0.2668,-0.2875,-0.2867,-0.2884,-0.2867,-0.2874,-0.2737,-0.2781,-0.2524,-0.2556,-0.2556,-0.2473,-0.2699,-0.2772,-0.2774,-0.2776,-0.2778,-0.278,0,-0.215,-0.2168,-0.2232,-0.2281,-0.2337,-0.2396,-0.2473,-0.2406,-0.241,-0.2483,-0.2495,-0.25,-0.2434,-0.2503,-0.2466,-0.2403,-0.2282,-0.2344,-0.2132,-0.2093,-0.2215,-0.2159,-0.213,-0.213,-0.213,-0.213,-0.213,-0.213,-0.2122,-0.2122,-0.2146,-0.2174,-0.2216,-0.2159,-0.2146,-0.2063,-0.2033,-0.1953,-0.194,-0.2,-0.2132,-0.23,-0.2236,-0.2155,-0.2063,-0.2026,-0.2139,-0.206,-0.2072,-0.2084,-0.2026,-0.197,-0.197,-0.1804,-0.1803,-0.1802]},{"header":{"parameterUnit":"m.s-1","parameterCategory":2,"la1":30.2991,"la2":30.254,"lo1":-89.0895,"lo2":-89.0444,"dy":0.0017,"dx":0.0017,"nx":28,"ny":28,"refTime":"2023-03-29T21:00:00:Z","depth":"0","parameterNumber":3,"parameterNumberName":"V-component_of_CURRENTS"},"data":[0,0,0,0,0,0,0,0,0,0,0,0,0,0,0,0,0,0,0,0,0,0,0,0,0,0,0,0,0,0,0,0,0,0,0,0,0,0,0,0,0,0,0,0,0,0,0,0,0,0,0,0,0,0,0,0,0,0,-0.0825,-0.0822,0,-0.0545,-0.0541,-0.0538,-0.0407,-0.0407,-0.0408,-0.0408,-0.0267,-0.0263,-0.0259,0,0,0,0,0,0,0,0,0,0,0,0,0,-0.1091,-0.1088,-0.0825,-0.0821,-0.0818,-0.0545,-0.0541,-0.0537,-0.0407,-0.0407,-0.0408,-0.0408,-0.0269,-0.0264,-0.0259,0,0,0,0,0,0,0,0,0,0,0,0,0,-0.0909,-0.1087,-0.0826,-0.0721,-0.0709,-0.0546,-0.0541,-0.0536,-0.0407,-0.0407,-0.0408,-0.0408,-0.027,-0.0264,-0.0258,-0.0213,0,0,-0.024,-0.0237,0,0,0,0,0,0,0,0,-0.092,-0.09,-0.074,-0.0728,-0.0714,-0.0512,-0.0583,-0.0435,-0.0407,-0.0521,-0.0408,-0.0408,-0.0362,-0.0349,-0.0292,-0.0206,-0.02,-0.0239,-0.0236,-0.0233,-0.0232,0,0,0,0,0,0,0,-0.0933,-0.091,-0.0713,-0.0736,-0.072,-0.0634,-0.061,-0.0553,-0.0445,-0.0511,-0.0501,-0.0471,-0.0356,-0.0298,-0.0288,-0.0198,-0.024,-0.0234,-0.0231,-0.0228,-0.0064,-0.0063,0,0,0,0,0,0,-0.0976,-0.0923,-0.0722,-0.0705,-0.0821,-0.063,-0.0603,-0.0576,-0.0442,-0.0421,-0.0471,-0.0466,-0.0308,-0.0295,-0.0283,-0.0215,-0.0233,-0.0228,-0.0224,-0.0065,-0.0064,-0.0063,0,0,0,0,0,0,-0.0983,-0.0961,-0.0733,-0.0808,-0.0773,-0.0626,-0.0596,-0.057,-0.0511,-0.041,-0.0392,-0.0439,-0.0308,-0.0291,-0.0214,-0.021,-0.0225,-0.022,-0.0066,-0.0065,-0.0064,-0.0086,0,0,0,0,0,0,-0.0992,-0.0966,-0.0968,-0.0811,-0.0771,-0.0637,-0.0594,-0.0564,-0.0492,-0.0483,-0.0377,-0.0363,-0.0307,-0.0223,-0.0208,-0.0202,-0.0215,-0.0067,-0.0065,-0.0064,-0.0086,-0.0086,-0.0085,0,0,0,0,0,-0.1003,-0.0996,-0.0969,-0.0945,-0.0776,-0.0636,-0.0607,-0.0503,-0.0491,-0.0455,-0.038,-0.0367,-0.0205,-0.0216,-0.0199,-0.0192,-0.0067,-0.0066,-0.0064,-0.0086,-0.0086,-0.0085,0,0,0,0,0,0,-0.1112,-0.0977,-0.0945,-0.09,-0.0783,-0.0615,-0.0574,-0.0511,-0.0417,-0.0418,-0.0339,-0.0319,-0.0254,-0.0219,-0.0234,-0.0142,-0.0141,-0.0136,-0.0164,-0.0163,-0.0163,-0.0172,-0.021,0,0,0,0,0,-0.1141,-0.1099,-0.0956,-0.0918,-0.0867,-0.0728,-0.0665,-0.0589,-0.0482,-0.044,-0.0363,-0.0295,-0.023,-0.0195,-0.013,-0.0073,-0.0051,-0.0063,-0.0063,-0.0062,-0.0058,-0.0029,-0.0026,-0.0058,-0.0058,-0.0058,0,0,-0.1178,-0.1094,-0.1075,-0.0939,-0.0843,-0.0744,-0.0689,-0.0589,-0.0515,-0.0444,-0.0342,-0.0288,-0.0214,-0.0141,-0.0112,-0.0112,-0.0039,-0.006,-0.0061,-0.0056,-0.0027,-0.0024,-0.0021,-0.0056,-0.0057,-0.0057,0,0,-0.1186,-0.1151,-0.1099,-0.1002,-0.086,-0.077,-0.0749,-0.0587,-0.0531,-0.0425,-0.0365,-0.0304,-0.0195,-0.0133,-0.0094,-0.0057,-0.0038,-0.005,-0.0051,-0.0022,-0.002,-0.0017,0.0023,0.0029,-0.005,-0.005,-0.005,0,-0.1236,-0.1141,-0.1062,-0.0967,-0.0894,-0.0788,-0.0702,-0.062,-0.0455,-0.0415,-0.0405,-0.0241,-0.019,-0.01,-0.0083,-0.0057,-0.0035,-0.006,-0.0023,-0.002,-0.0018,0.0023,0.003,-0.0051,-0.0051,-0.0051,-0.0051,0,-0.117,-0.1101,-0.1061,-0.0916,-0.0835,-0.0746,-0.0625,-0.0556,-0.0499,-0.0415,-0.0324,-0.0239,-0.0147,-0.0129,-0.0089,-0.0038,-0.0025,-0.0029,-0.003,-0.0016,0.0027,0.0034,-0.0052,-0.0052,-0.0052,-0.0052,0,0,-0.1249,-0.1058,-0.1039,-0.0971,-0.0803,-0.0726,-0.0633,-0.0509,-0.0461,-0.0352,-0.0283,-0.018,-0.0152,-0.0107,-0.0059,-0.0031,0.0008,-0.0024,-0.0022,0.0007,0.0081,0.0191,0.021,0.0005,0.0006,0.0007,0.0105,0,-0.1212,-0.1063,-0.0968,-0.084,-0.0757,-0.0654,-0.0579,-0.0474,-0.0397,-0.0313,-0.0246,-0.0169,-0.014,-0.0109,-0.0071,-0.0003,0.0026,-0.0018,0.0072,0.0075,0.0163,0.0222,0.0224,0.0321,0.0113,0.0114,0.0115,0,-0.115,-0.1065,-0.094,-0.0805,-0.0764,-0.0687,-0.0574,-0.0491,-0.0373,-0.0322,-0.0238,-0.0176,-0.0086,-0.0095,0.0027,-0.0002,0.0035,0.0073,0.0077,0.0194,0.02,0.0273,0.0343,0.0509,0.0127,0.0126,0.0125,0,-0.1209,-0.1039,-0.0955,-0.0897,-0.0734,-0.0689,-0.0622,-0.0502,-0.0459,-0.0335,-0.0302,-0.0172,-0.0123,-0.0046,0.0062,0.0036,0.0181,0.0152,0.0287,0.0295,0.0325,0.0335,0.0559,0.0208,0.0208,0.0207,0.0207,0,-0.1177,-0.1105,-0.0984,-0.093,-0.0873,-0.0749,-0.0691,-0.0604,-0.0509,-0.0474,-0.0331,-0.0279,-0.0118,-0.0005,0.0073,0.0241,0.0195,0.0314,0.0338,0.0321,0.0329,0.0497,0.0548,0.0211,0.021,0.021,0.0209,0,-0.1199,-0.1114,-0.1026,-0.0908,-0.0885,-0.0848,-0.0762,-0.0736,-0.0626,-0.0576,-0.0546,-0.0356,-0.0179,0.0002,0.0156,0.0262,0.0499,0.0448,0.044,0.0464,0.0763,0.0811,0.1032,0.1115,0.0626,0.0629,0.0632,0,-0.1172,-0.1131,-0.1053,-0.1053,-0.0996,-0.0946,-0.0934,-0.0817,-0.0794,-0.0637,-0.0631,-0.0416,-0.0278,0.0067,0.033,0.0565,0.0626,0.0687,0.0648,0.0824,0.0892,0.09,0.0952,0.0668,0.0671,0.0674,0.0676,0,-0.1149,-0.1141,-0.1098,-0.1127,-0.112,-0.1099,-0.1067,-0.1067,-0.0945,-0.0873,-0.0757,-0.0627,-0.0225,0.012,0.0509,0.0619,0.0823,0.0748,0.0915,0.0959,0.0993,0.1068,0.0569,0.0697,0.0695,0.0694,0.0692,0.0692,-0.1159,-0.1165,-0.1167,-0.1194,-0.1217,-0.1251,-0.1243,-0.1209,-0.1163,-0.1033,-0.0891,-0.0651,-0.0099,0.0484,0.067,0.1104,0.1026,0.1159,0.1204,0.1199,0.1292,0.0877,0.1048,0.1048,0.1048,0.1048,0.1048,0,-0.1158,-0.12,-0.1243,-0.1281,-0.1348,-0.1328,-0.1333,-0.1313,-0.1272,-0.1098,-0.0946,-0.0375,0.0163,0.0678,0.1326,0.1536,0.1525,0.1613,0.1596,0.1627,0.1247,0.1265,0.1511,0.1511,0.1511,0.1511,0.1511,0.151,-0.1162,-0.1222,-0.1268,-0.1394,-0.1434,-0.1474,-0.1477,-0.1423,-0.1293,-0.0992,-0.0663,-0.0409,0.0324,0.1344,0.1914,0.1939,0.2081,0.2046,0.216,0.1872,0.1831,0.1792,0.1826,0.2185,0.2186,0.2482,0.2485,0.2488]}],[{"header":{"parameterUnit":"m.s-1","parameterCategory":2,"la1":30.2991,"la2":30.254,"lo1":-89.0895,"lo2":-89.0444,"dy":0.0017,"dx":0.0017,"nx":28,"ny":28,"refTime":"2023-03-29T21:00:00:Z","depth":"2","parameterNumber":2,"parameterNumberName":"U-component_of_CURRENTS"},"data":[0,0,0,0,0,0,0,0,0,0,0,0,0,0,0,0,0,0,0,0,0,0,0,0,0,0,0,0,0,0,0,0,0,0,0,0,0,0,0,0,0,0,0,0,0,0,0,0,0,0,0,0,0,0,0,0,0,0,-0.1911,-0.1914,0,-0.204,-0.204,-0.204,-0.2053,-0.2053,-0.2053,-0.2053,-0.2002,-0.2001,-0.2,0,0,0,0,0,0,0,0,0,0,0,0,0,-0.1538,-0.1545,-0.1911,-0.1914,-0.1917,-0.204,-0.204,-0.2041,-0.2053,-0.2053,-0.2053,-0.2053,-0.2003,-0.2001,-0.1999,0,0,0,0,0,0,0,0,0,0,0,0,0,-0.1673,-0.1547,-0.191,-0.1949,-0.1955,-0.204,-0.204,-0.2041,-0.2053,-0.2053,-0.2053,-0.2053,-0.2003,-0.2001,-0.1999,-0.1985,0,0,-0.1993,-0.1992,0,0,0,0,0,0,0,0,-0.1665,-0.1685,-0.194,-0.1947,-0.1954,-0.2044,-0.1891,-0.2018,-0.2053,-0.2,-0.2053,-0.2054,-0.2009,-0.2007,-0.2012,-0.1983,-0.1981,-0.1993,-0.1991,-0.1991,-0.199,0,0,0,0,0,0,0,-0.1656,-0.1679,-0.1947,-0.1944,-0.1952,-0.1914,-0.1933,-0.1914,-0.1988,-0.2005,-0.201,-0.2048,-0.2009,-0.2014,-0.2011,-0.198,-0.1993,-0.1991,-0.199,-0.1989,-0.1991,-0.1993,0,0,0,0,0,0,-0.1679,-0.1671,-0.1943,-0.1952,-0.1824,-0.1922,-0.1943,-0.2002,-0.1992,-0.1997,-0.2048,-0.2048,-0.2018,-0.2013,-0.2009,-0.1999,-0.1991,-0.1989,-0.1987,-0.199,-0.1992,-0.1993,0,0,0,0,0,0,-0.1671,-0.1703,-0.1938,-0.1824,-0.1853,-0.1931,-0.1997,-0.2005,-0.2028,-0.203,-0.2027,-0.2066,-0.2018,-0.2012,-0.2011,-0.1997,-0.1988,-0.1986,-0.1988,-0.199,-0.1992,-0.1974,0,0,0,0,0,0,-0.166,-0.1699,-0.1737,-0.1827,-0.1862,-0.1988,-0.1999,-0.2008,-0.2058,-0.206,-0.2044,-0.2039,-0.2017,-0.2014,-0.2009,-0.1994,-0.1984,-0.1987,-0.1989,-0.1992,-0.1973,-0.1975,-0.1977,0,0,0,0,0,-0.1646,-0.172,-0.1739,-0.1772,-0.1917,-0.199,-0.2001,-0.2044,-0.2059,-0.2063,-0.2066,-0.204,-0.2026,-0.2013,-0.2006,-0.199,-0.1986,-0.1989,-0.1991,-0.1972,-0.1975,-0.1977,0,0,0,0,0,0,-0.1589,-0.1732,-0.1754,-0.187,-0.192,-0.1998,-0.2038,-0.2055,-0.2063,-0.207,-0.2051,-0.2045,-0.204,-0.2032,-0.2019,-0.2006,-0.2004,-0.2005,-0.1991,-0.1994,-0.1996,-0.1987,-0.1982,0,0,0,0,0,-0.1595,-0.168,-0.1781,-0.1866,-0.1908,-0.1966,-0.2003,-0.2027,-0.2062,-0.2068,-0.2058,-0.2056,-0.2046,-0.2034,-0.2027,-0.2014,-0.2011,-0.2006,-0.2008,-0.2009,-0.2003,-0.197,-0.1967,-0.2003,-0.2003,-0.2003,0,0,-0.1594,-0.1689,-0.1734,-0.1857,-0.1912,-0.1952,-0.1986,-0.2055,-0.2059,-0.2058,-0.2058,-0.2061,-0.2049,-0.2037,-0.2033,-0.2025,-0.2012,-0.2013,-0.2014,-0.2007,-0.1972,-0.1968,-0.1965,-0.2005,-0.2004,-0.2004,0,0,-0.1638,-0.1726,-0.1802,-0.1837,-0.1933,-0.1963,-0.1985,-0.2056,-0.2061,-0.2071,-0.2072,-0.2067,-0.2061,-0.2037,-0.2027,-0.2039,-0.2028,-0.2051,-0.2038,-0.2006,-0.2001,-0.1997,-0.2038,-0.2037,-0.2044,-0.2044,-0.2044,0,-0.1627,-0.1739,-0.1823,-0.1881,-0.1919,-0.1967,-0.2011,-0.2016,-0.2059,-0.2064,-0.2071,-0.2068,-0.2051,-0.2023,-0.2032,-0.2034,-0.2049,-0.202,-0.2003,-0.1999,-0.1995,-0.2037,-0.2036,-0.2044,-0.2044,-0.2044,-0.2044,0,-0.1716,-0.1773,-0.1823,-0.1906,-0.1944,-0.1992,-0.2025,-0.2039,-0.2058,-0.2058,-0.2055,-0.2038,-0.2044,-0.203,-0.2031,-0.2002,-0.2038,-0.201,-0.1985,-0.1989,-0.2036,-0.2035,-0.2043,-0.2043,-0.2044,-0.2044,0,0,-0.1769,-0.1865,-0.1877,-0.1897,-0.1958,-0.2006,-0.2012,-0.2041,-0.2069,-0.2044,-0.2065,-0.2019,-0.2032,-0.2024,-0.2017,-0.1973,-0.1969,-0.1986,-0.1985,-0.2008,-0.1961,-0.2124,-0.214,-0.1936,-0.1935,-0.1934,-0.2021,0,-0.1805,-0.1898,-0.1938,-0.1978,-0.202,-0.2039,-0.2048,-0.2062,-0.2083,-0.2102,-0.2049,-0.2065,-0.202,-0.205,-0.1991,-0.1994,-0.1962,-0.1952,-0.197,-0.1972,-0.2098,-0.2141,-0.1836,-0.19,-0.2021,-0.2021,-0.2021,0,-0.1874,-0.1925,-0.1985,-0.2022,-0.2051,-0.2068,-0.2128,-0.2136,-0.2143,-0.2164,-0.2144,-0.214,-0.2097,-0.2059,-0.2003,-0.2009,-0.1987,-0.1958,-0.196,-0.2111,-0.2133,-0.1908,-0.1895,-0.202,-0.202,-0.202,-0.202,0,-0.1878,-0.1952,-0.2,-0.2008,-0.2062,-0.2091,-0.2121,-0.2156,-0.219,-0.2209,-0.2264,-0.2195,-0.2227,-0.2127,-0.2122,-0.2059,-0.2089,-0.1991,-0.2105,-0.2118,-0.1863,-0.1859,-0.1924,-0.1924,-0.1924,-0.1924,-0.1924,0,-0.1893,-0.1924,-0.2007,-0.2017,-0.2077,-0.2116,-0.2177,-0.2206,-0.2268,-0.2333,-0.2301,-0.2365,-0.2245,-0.2267,-0.2174,-0.2209,-0.2139,-0.2127,-0.2146,-0.1864,-0.1858,-0.1949,-0.1951,-0.1927,-0.1927,-0.1926,-0.1925,0,-0.1876,-0.192,-0.197,-0.2045,-0.207,-0.2116,-0.2205,-0.2275,-0.2331,-0.243,-0.2448,-0.2511,-0.2561,-0.2495,-0.2418,-0.2353,-0.2309,-0.2329,-0.2074,-0.2064,-0.2332,-0.2332,-0.2415,-0.2421,-0.2426,-0.2431,-0.2435,0,-0.187,-0.1901,-0.1989,-0.203,-0.2063,-0.2133,-0.2204,-0.228,-0.237,-0.2529,-0.2599,-0.2709,-0.2702,-0.2721,-0.2626,-0.2535,-0.2535,-0.2302,-0.2104,-0.237,-0.2379,-0.237,-0.2363,-0.1753,-0.1751,-0.1749,-0.1747,0,-0.1855,-0.1901,-0.1943,-0.2026,-0.2103,-0.2186,-0.2294,-0.2354,-0.2487,-0.2553,-0.2683,-0.2669,-0.2743,-0.2539,-0.2547,-0.2435,-0.2285,-0.2279,-0.2558,-0.1741,-0.177,-0.1773,-0.1781,-0.1732,-0.1734,-0.1735,-0.1735,-0.1736,-0.1848,-0.1875,-0.1944,-0.2008,-0.211,-0.2212,-0.218,-0.2301,-0.2357,-0.2378,-0.2577,-0.2461,-0.2455,-0.2278,-0.2215,-0.2202,-0.2315,-0.2123,-0.2114,-0.211,-0.2084,-0.2127,-0.2153,-0.2156,-0.216,-0.2163,-0.2165,0,-0.1824,-0.186,-0.1928,-0.1976,-0.2018,-0.211,-0.2217,-0.2121,-0.2066,-0.2179,-0.2153,-0.1973,-0.1823,-0.1878,-0.1779,-0.1803,-0.161,-0.177,-0.1439,-0.1457,-0.1473,-0.14,-0.1295,-0.1293,-0.1291,-0.129,0,0,-0.1808,-0.183,-0.1849,-0.1851,-0.1876,-0.1821,-0.1807,-0.1725,-0.1711,-0.1605,-0.1561,-0.1637,-0.1739,-0.1491,-0.146,-0.1359,-0.1376,-0.1297,-0.1978,-0.1597,-0.161,-0.1659,-0.1572,0,0,0,0,0]},{"header":{"parameterUnit":"m.s-1","parameterCategory":2,"la1":30.2991,"la2":30.254,"lo1":-89.0895,"lo2":-89.0444,"dy":0.0017,"dx":0.0017,"nx":28,"ny":28,"refTime":"2023-03-29T21:00:00:Z","depth":"2","parameterNumber":3,"parameterNumberName":"V-component_of_CURRENTS"},"data":[0,0,0,0,0,0,0,0,0,0,0,0,0,0,0,0,0,0,0,0,0,0,0,0,0,0,0,0,0,0,0,0,0,0,0,0,0,0,0,0,0,0,0,0,0,0,0,0,0,0,0,0,0,0,0,0,0,0,-0.051,-0.0511,0,-0.0439,-0.0436,-0.0434,-0.034,-0.034,-0.0341,-0.0341,-0.022,-0.0216,-0.0213,0,0,0,0,0,0,0,0,0,0,0,0,0,-0.0215,-0.0222,-0.051,-0.0511,-0.0512,-0.0439,-0.0436,-0.0433,-0.034,-0.034,-0.0341,-0.0341,-0.0221,-0.0217,-0.0212,0,0,0,0,0,0,0,0,0,0,0,0,0,-0.0245,-0.0224,-0.051,-0.0472,-0.0469,-0.044,-0.0436,-0.0432,-0.034,-0.034,-0.0341,-0.0341,-0.0222,-0.0217,-0.0212,-0.0169,0,0,-0.0195,-0.0193,0,0,0,0,0,0,0,0,-0.0244,-0.0253,-0.0476,-0.0474,-0.0472,-0.0417,-0.0289,-0.0349,-0.034,-0.0367,-0.0341,-0.0342,-0.0294,-0.0283,-0.024,-0.0163,-0.0158,-0.0195,-0.0192,-0.019,-0.0188,0,0,0,0,0,0,0,-0.0242,-0.0254,-0.0461,-0.0478,-0.0475,-0.034,-0.0345,-0.0296,-0.0312,-0.0365,-0.0363,-0.0388,-0.029,-0.0245,-0.0236,-0.0156,-0.0195,-0.019,-0.0187,-0.0185,-0.0054,-0.0054,0,0,0,0,0,0,-0.0312,-0.0255,-0.0463,-0.0461,-0.038,-0.0348,-0.0353,-0.0417,-0.0313,-0.0304,-0.0387,-0.0384,-0.0254,-0.0243,-0.0232,-0.019,-0.019,-0.0185,-0.0181,-0.0054,-0.0054,-0.0053,0,0,0,0,0,0,-0.0306,-0.0333,-0.0467,-0.0368,-0.0379,-0.0357,-0.0426,-0.0416,-0.0387,-0.0335,-0.032,-0.0375,-0.0254,-0.0239,-0.0179,-0.0184,-0.0182,-0.0177,-0.0054,-0.0054,-0.0054,-0.0096,0,0,0,0,0,0,-0.0299,-0.0332,-0.0388,-0.0376,-0.0389,-0.0458,-0.0428,-0.0415,-0.0411,-0.0405,-0.0319,-0.0307,-0.0253,-0.0187,-0.0173,-0.0177,-0.0173,-0.0055,-0.0054,-0.0054,-0.0095,-0.0097,-0.0099,0,0,0,0,0,-0.0289,-0.0381,-0.0392,-0.0416,-0.0473,-0.0461,-0.045,-0.0418,-0.0411,-0.0392,-0.0327,-0.0311,-0.0175,-0.0181,-0.0166,-0.0168,-0.0055,-0.0054,-0.0054,-0.0094,-0.0097,-0.0099,0,0,0,0,0,0,-0.027,-0.0382,-0.0392,-0.0512,-0.0492,-0.0453,-0.0478,-0.0432,-0.0362,-0.0366,-0.0292,-0.0273,-0.0225,-0.019,-0.02,-0.013,-0.0119,-0.0115,-0.0155,-0.0157,-0.0159,-0.0171,-0.0169,0,0,0,0,0,-0.0304,-0.0413,-0.0439,-0.0526,-0.0549,-0.0508,-0.0502,-0.0463,-0.0418,-0.0388,-0.0322,-0.0262,-0.0206,-0.0179,-0.012,-0.0078,-0.0049,-0.0074,-0.0076,-0.0078,-0.0077,-0.0057,-0.0058,-0.0051,-0.0051,-0.0051,0,0,-0.0321,-0.0401,-0.0458,-0.053,-0.0536,-0.0525,-0.0501,-0.0509,-0.0462,-0.0388,-0.0319,-0.0264,-0.0195,-0.0138,-0.0117,-0.0113,-0.0058,-0.0077,-0.0079,-0.0077,-0.0057,-0.0057,-0.0058,-0.0051,-0.0051,-0.0051,0,0,-0.0393,-0.0491,-0.0587,-0.057,-0.06,-0.0563,-0.0573,-0.0527,-0.049,-0.0412,-0.0353,-0.0302,-0.0207,-0.0153,-0.0118,-0.0101,-0.0068,-0.0093,-0.011,-0.0091,-0.0092,-0.0092,-0.0031,-0.0025,-0.0096,-0.0096,-0.0096,0,-0.0401,-0.0522,-0.059,-0.0627,-0.0616,-0.0589,-0.0586,-0.054,-0.0449,-0.0419,-0.0404,-0.0264,-0.0213,-0.0146,-0.0133,-0.0107,-0.0076,-0.0108,-0.0095,-0.0095,-0.0095,-0.0032,-0.0025,-0.0098,-0.0098,-0.0097,-0.0097,0,-0.0514,-0.0564,-0.0618,-0.0667,-0.0646,-0.0648,-0.0602,-0.0558,-0.0516,-0.045,-0.0381,-0.0299,-0.0214,-0.0201,-0.0154,-0.0123,-0.0093,-0.0101,-0.0094,-0.0099,-0.0031,-0.0023,-0.0101,-0.01,-0.0099,-0.0099,0,0,-0.0638,-0.069,-0.0704,-0.0686,-0.0657,-0.0646,-0.0602,-0.0548,-0.0515,-0.0436,-0.0379,-0.0296,-0.0256,-0.0213,-0.0161,-0.0147,-0.0107,-0.0124,-0.0122,-0.007,-0.0031,0.0105,0.0127,-0.0119,-0.0119,-0.0119,0.0025,0,-0.069,-0.0761,-0.0759,-0.0729,-0.0735,-0.0663,-0.0616,-0.0546,-0.0484,-0.0414,-0.0361,-0.0288,-0.0261,-0.0219,-0.0198,-0.0118,-0.0093,-0.0142,-0.0028,-0.0023,0.0091,0.0137,0.005,0.018,0.0032,0.0033,0.0034,0,-0.0795,-0.0813,-0.0828,-0.0747,-0.0752,-0.0707,-0.0631,-0.0576,-0.0483,-0.0434,-0.0364,-0.0299,-0.0222,-0.0225,-0.0111,-0.0142,-0.0089,-0.005,-0.0044,0.0101,0.0126,0.0156,0.0199,0.0047,0.0046,0.0045,0.0044,0,-0.0856,-0.0848,-0.0862,-0.0831,-0.0751,-0.0726,-0.068,-0.0589,-0.0556,-0.0445,-0.0403,-0.0299,-0.0234,-0.0174,-0.0049,-0.0085,0.0069,0.0029,0.0198,0.021,0.017,0.0179,0.0077,0.0077,0.0077,0.0076,0.0076,0,-0.0907,-0.0902,-0.089,-0.0874,-0.0857,-0.0776,-0.0742,-0.0676,-0.0591,-0.0557,-0.0425,-0.0364,-0.0227,-0.0108,-0.0034,0.0152,0.0092,0.0223,0.0258,0.016,0.0166,0.0065,0.0062,0.0082,0.0081,0.008,0.0079,0,-0.0957,-0.096,-0.0947,-0.0894,-0.0883,-0.087,-0.0808,-0.079,-0.0683,-0.063,-0.0598,-0.0402,-0.0214,-0.005,0.0101,0.0201,0.0335,0.0398,0.0317,0.0342,0.0454,0.0447,0.0602,0.0608,0.0614,0.0618,0.0621,0,-0.0988,-0.1004,-0.0992,-0.1008,-0.0986,-0.0963,-0.0963,-0.0861,-0.0837,-0.0664,-0.065,-0.0414,-0.0263,0.0092,0.0308,0.0532,0.0485,0.061,0.0525,0.0491,0.0509,0.0494,0.048,0.0454,0.0456,0.0457,0.0458,0,-0.1014,-0.1038,-0.1036,-0.1095,-0.1108,-0.1109,-0.1087,-0.1079,-0.0961,-0.0872,-0.072,-0.0574,-0.0186,0.0103,0.0478,0.0567,0.0579,0.0656,0.0621,0.0359,0.0369,0.0381,0.0368,0.0472,0.0471,0.047,0.0469,0.0469,-0.1046,-0.1076,-0.1124,-0.1172,-0.1209,-0.1247,-0.1236,-0.1197,-0.1134,-0.0973,-0.082,-0.0561,-0.0236,0.0292,0.0523,0.0754,0.0735,0.075,0.0736,0.0722,0.0704,0.0726,0.0894,0.0895,0.0896,0.0896,0.0897,0,-0.1075,-0.1136,-0.1203,-0.1257,-0.1317,-0.1313,-0.1318,-0.1275,-0.1198,-0.1024,-0.0841,-0.0492,-0.0122,0.0221,0.0593,0.0826,0.0714,0.0856,0.0651,0.0637,0.0625,0.0593,0.0758,0.0758,0.0759,0.0759,0,0,-0.1093,-0.1177,-0.1226,-0.1342,-0.138,-0.1408,-0.14,-0.133,-0.12,-0.1012,-0.0803,-0.0529,-0.011,0.0136,0.0415,0.0607,0.0545,0.06,0.0683,0.0391,0.0376,0.0539,0.0474,0,0,0,0,0]}],[{"header":{"parameterUnit":"m.s-1","parameterCategory":2,"la1":30.2991,"la2":30.254,"lo1":-89.0895,"lo2":-89.0444,"dy":0.0017,"dx":0.0017,"nx":28,"ny":28,"refTime":"2023-03-29T21:00:00:Z","depth":"4","parameterNumber":2,"parameterNumberName":"U-component_of_CURRENTS"},"data":[0,0,0,0,0,0,0,0,0,0,0,0,0,0,0,0,0,0,0,0,0,0,0,0,0,0,0,0,0,0,0,0,0,0,0,0,0,0,0,0,0,0,0,0,0,0,0,0,0,0,0,0,0,0,0,0,0,0,-0.0933,-0.0933,0,-0.0911,-0.0911,-0.091,-0.0895,-0.0895,-0.0895,-0.0896,-0.0984,-0.0986,-0.0989,0,0,0,0,0,0,0,0,0,0,0,0,0,-0.0884,-0.0886,-0.0933,-0.0933,-0.0933,-0.0911,-0.0911,-0.091,-0.0895,-0.0895,-0.0896,-0.0896,-0.0983,-0.0986,-0.0989,0,0,0,0,0,0,0,0,0,0,0,0,0,-0.0887,-0.0886,-0.0933,-0.0924,-0.0923,-0.0911,-0.0911,-0.091,-0.0895,-0.0895,-0.0896,-0.0896,-0.0982,-0.0986,-0.0989,-0.101,0,0,-0.1,-0.1001,0,0,0,0,0,0,0,0,-0.0887,-0.0889,-0.0926,-0.0925,-0.0924,-0.0907,-0.0926,-0.0949,-0.0895,-0.0904,-0.0896,-0.0896,-0.097,-0.0974,-0.0966,-0.1014,-0.1018,-0.1,-0.1002,-0.1004,-0.1005,0,0,0,0,0,0,0,-0.0887,-0.0889,-0.0923,-0.0925,-0.0924,-0.0894,-0.0895,-0.0929,-0.0938,-0.0904,-0.0903,-0.0903,-0.097,-0.0963,-0.0969,-0.1019,-0.1,-0.1003,-0.1005,-0.1007,-0.1289,-0.1294,0,0,0,0,0,0,-0.0897,-0.089,-0.0924,-0.0922,-0.0907,-0.0895,-0.0896,-0.0911,-0.0935,-0.0938,-0.0903,-0.0902,-0.0957,-0.0964,-0.0972,-0.1216,-0.1004,-0.1007,-0.1009,-0.1284,-0.129,-0.1296,0,0,0,0,0,0,-0.0896,-0.0901,-0.0925,-0.0905,-0.0907,-0.0897,-0.0913,-0.0911,-0.0921,-0.0933,-0.0938,-0.0917,-0.0957,-0.0967,-0.1037,-0.1211,-0.1009,-0.1012,-0.1277,-0.1286,-0.1293,-0.1566,0,0,0,0,0,0,-0.0895,-0.0901,-0.0919,-0.0907,-0.0908,-0.0932,-0.0913,-0.091,-0.092,-0.092,-0.0948,-0.0954,-0.0958,-0.1032,-0.104,-0.1213,-0.1015,-0.127,-0.1281,-0.1291,-0.155,-0.1582,-0.161,0,0,0,0,0,-0.0894,-0.0918,-0.0921,-0.0925,-0.0933,-0.0933,-0.0931,-0.0921,-0.0921,-0.093,-0.0966,-0.0954,-0.1105,-0.1037,-0.1046,-0.1224,-0.1265,-0.1278,-0.129,-0.1537,-0.1576,-0.1609,0,0,0,0,0,0,-0.0898,-0.0919,-0.0921,-0.0949,-0.0948,-0.0931,-0.0944,-0.0935,-0.0965,-0.0978,-0.0988,-0.0999,-0.1144,-0.1121,-0.1046,-0.1334,-0.1199,-0.1213,-0.1384,-0.142,-0.145,-0.1339,-0.1017,0,0,0,0,0,-0.0911,-0.0941,-0.0942,-0.0964,-0.0973,-0.0963,-0.0965,-0.0958,-0.0977,-0.0988,-0.103,-0.1093,-0.1198,-0.1249,-0.1305,-0.1432,-0.1313,-0.1561,-0.1591,-0.1617,-0.1534,-0.1497,-0.1514,-0.1336,-0.1336,-0.1336,0,0,-0.0914,-0.0933,-0.0947,-0.0968,-0.0972,-0.0982,-0.0965,-0.0979,-0.1006,-0.0999,-0.1087,-0.1186,-0.1248,-0.1417,-0.1483,-0.1423,-0.1624,-0.1632,-0.1655,-0.1554,-0.1511,-0.1527,-0.1541,-0.1344,-0.1343,-0.1341,0,0,-0.0935,-0.0963,-0.0992,-0.0999,-0.1015,-0.1009,-0.102,-0.1041,-0.1077,-0.1161,-0.1217,-0.1373,-0.1493,-0.1598,-0.1662,-0.1869,-0.1775,-0.196,-0.2039,-0.2012,-0.2023,-0.2031,-0.1967,-0.1967,-0.1988,-0.1989,-0.1989,0,-0.0938,-0.0976,-0.0996,-0.102,-0.1031,-0.1028,-0.1047,-0.1078,-0.1128,-0.1196,-0.1214,-0.1493,-0.1568,-0.1793,-0.1903,-0.194,-0.1876,-0.1913,-0.2044,-0.205,-0.2053,-0.1984,-0.198,-0.2003,-0.2002,-0.2,-0.1999,0,-0.0962,-0.1001,-0.1022,-0.1056,-0.1071,-0.1088,-0.1124,-0.1189,-0.1257,-0.131,-0.1542,-0.1674,-0.1845,-0.197,-0.2003,-0.2168,-0.2102,-0.208,-0.194,-0.2087,-0.2007,-0.1998,-0.2024,-0.2019,-0.2015,-0.2011,0,0,-0.0939,-0.1025,-0.1029,-0.1056,-0.1093,-0.1098,-0.119,-0.1274,-0.1349,-0.15,-0.1667,-0.1918,-0.2029,-0.2101,-0.2244,-0.2244,-0.2296,-0.2193,-0.2185,-0.2102,-0.2203,-0.209,-0.2068,-0.2309,-0.2308,-0.2307,-0.2157,0,-0.0948,-0.1008,-0.1049,-0.1089,-0.1118,-0.117,-0.1241,-0.1327,-0.1443,-0.1612,-0.1822,-0.2028,-0.2075,-0.2252,-0.2272,-0.2277,-0.2274,-0.2333,-0.2087,-0.2077,-0.1939,-0.2054,-0.2303,-0.215,-0.2147,-0.2146,-0.2144,0,-0.0941,-0.099,-0.1048,-0.1127,-0.1144,-0.117,-0.1294,-0.1371,-0.159,-0.1734,-0.1975,-0.2111,-0.2291,-0.2294,-0.2269,-0.231,-0.2261,-0.2214,-0.2208,-0.1962,-0.1946,-0.1957,-0.2126,-0.2127,-0.2128,-0.213,-0.2131,0,-0.0894,-0.0978,-0.103,-0.1049,-0.1138,-0.1199,-0.1263,-0.142,-0.1517,-0.1847,-0.1961,-0.2178,-0.2298,-0.2264,-0.2193,-0.2251,-0.2049,-0.2125,-0.1959,-0.195,-0.1967,-0.1958,-0.2043,-0.2044,-0.2044,-0.2044,-0.2045,0,-0.0869,-0.0904,-0.1016,-0.1034,-0.1084,-0.1183,-0.1265,-0.1417,-0.1642,-0.1711,-0.2035,-0.2103,-0.2273,-0.2207,-0.2166,-0.1982,-0.2021,-0.1927,-0.1897,-0.2101,-0.2108,-0.1963,-0.1956,-0.2039,-0.204,-0.2041,-0.2042,0,-0.0791,-0.0876,-0.0928,-0.1038,-0.1062,-0.111,-0.123,-0.1293,-0.1538,-0.166,-0.1782,-0.2025,-0.197,-0.2018,-0.1935,-0.1894,-0.1774,-0.1696,-0.1851,-0.1839,-0.1718,-0.1728,-0.1556,-0.1551,-0.1546,-0.1542,-0.1539,0,-0.0759,-0.0779,-0.0886,-0.0909,-0.0957,-0.1026,-0.1047,-0.1263,-0.131,-0.1499,-0.1526,-0.1631,-0.1735,-0.1558,-0.162,-0.157,-0.1563,-0.1509,-0.1688,-0.1675,-0.1665,-0.1682,-0.1697,-0.1532,-0.1531,-0.1529,-0.1528,0,-0.0681,-0.0727,-0.078,-0.0813,-0.0842,-0.0858,-0.0907,-0.094,-0.1112,-0.1265,-0.1317,-0.1415,-0.1366,-0.1441,-0.1414,-0.1359,-0.1571,-0.1464,-0.1477,-0.1645,-0.1644,-0.1642,-0.1663,-0.1513,-0.1515,-0.1516,-0.1517,0,-0.0619,-0.0628,-0.0696,-0.0714,-0.074,-0.0734,-0.0767,-0.0789,-0.0881,-0.1083,-0.1001,-0.1154,-0.1252,-0.131,-0.1216,-0.124,-0.1303,-0.1322,-0.1344,-0.1363,-0.1383,-0.1359,-0.1077,0,0,0,0,0,-0.0548,-0.0556,-0.0578,-0.0621,-0.0637,-0.0659,-0.0679,-0.0716,-0.0777,-0.0782,-0.0945,-0.0917,-0.1011,-0.1083,-0.1087,-0.1139,-0.1285,-0.1136,-0.1312,-0.1425,-0.1443,-0.1494,0,0,0,0,0,0,-0.0513,-0.0538,-0.0558,-0.0537,-0.0545,-0.055,-0.0581,-0.0627,-0.0652,-0.0737,-0.0802,-0.0869,-0.0974,-0.1009,-0.1077,-0.109,-0.1187,-0.1204,-0.1202,-0.1415,-0.1431,-0.1446,-0.1504,0,0,0,0,0]},{"header":{"parameterUnit":"m.s-1","parameterCategory":2,"la1":30.2991,"la2":30.254,"lo1":-89.0895,"lo2":-89.0444,"dy":0.0017,"dx":0.0017,"nx":28,"ny":28,"refTime":"2023-03-29T21:00:00:Z","depth":"4","parameterNumber":3,"parameterNumberName":"V-component_of_CURRENTS"},"data":[0,0,0,0,0,0,0,0,0,0,0,0,0,0,0,0,0,0,0,0,0,0,0,0,0,0,0,0,0,0,0,0,0,0,0,0,0,0,0,0,0,0,0,0,0,0,0,0,0,0,0,0,0,0,0,0,0,0,0.0103,0.0103,0,0.012,0.012,0.012,0.0135,0.0136,0.0136,0.0136,0.0129,0.0129,0.0128,0,0,0,0,0,0,0,0,0,0,0,0,0,0.0085,0.0085,0.0103,0.0103,0.0104,0.012,0.012,0.012,0.0135,0.0136,0.0136,0.0136,0.0129,0.0129,0.0128,0,0,0,0,0,0,0,0,0,0,0,0,0,0.0096,0.0085,0.0103,0.0114,0.0115,0.012,0.012,0.012,0.0135,0.0136,0.0136,0.0136,0.0129,0.0129,0.0128,0.0117,0,0,0.0126,0.0126,0,0,0,0,0,0,0,0,0.0095,0.0096,0.0112,0.0113,0.0114,0.0127,0.0111,0.0118,0.0135,0.0127,0.0136,0.0136,0.0126,0.0126,0.0127,0.0116,0.0116,0.0126,0.0126,0.0125,0.0125,0,0,0,0,0,0,0,0.0094,0.0096,0.0109,0.0112,0.0114,0.0118,0.012,0.0112,0.0123,0.0127,0.0129,0.0132,0.0127,0.0128,0.0127,0.0116,0.0126,0.0126,0.0125,0.0125,0.0117,0.0117,0,0,0,0,0,0,0.0093,0.0095,0.0109,0.011,0.0106,0.0118,0.012,0.0122,0.0124,0.0125,0.0131,0.0132,0.0129,0.0128,0.0127,0.0201,0.0125,0.0125,0.0124,0.0117,0.0117,0.0117,0,0,0,0,0,0,0.0093,0.0094,0.0108,0.0103,0.0105,0.0118,0.012,0.0122,0.0127,0.0127,0.0128,0.0135,0.0129,0.0128,0.0119,0.0198,0.0125,0.0124,0.0117,0.0117,0.0117,0.0294,0,0,0,0,0,0,0.0092,0.0094,0.0091,0.0103,0.0106,0.0103,0.0119,0.0122,0.0128,0.013,0.013,0.013,0.0129,0.012,0.0118,0.0196,0.0123,0.0116,0.0117,0.0117,0.0288,0.03,0.031,0,0,0,0,0,0.0091,0.0084,0.009,0.0092,0.0102,0.0103,0.0104,0.0114,0.0128,0.0122,0.0126,0.013,0.0121,0.0119,0.0117,0.0197,0.0116,0.0117,0.0117,0.0282,0.0297,0.031,0,0,0,0,0,0,0.0073,0.0085,0.0092,0.0089,0.0093,0.0106,0.0104,0.0115,0.0115,0.0116,0.0123,0.0122,0.0139,0.0119,0.0117,0.0185,0.0123,0.0123,0.0249,0.0263,0.0274,0.0212,0.0123,0,0,0,0,0,0.0068,0.0066,0.0078,0.0074,0.0078,0.0093,0.0095,0.01,0.0105,0.0107,0.0112,0.0117,0.0138,0.016,0.014,0.0183,0.0155,0.0228,0.0239,0.025,0.0191,0.0291,0.0308,0.0118,0.0118,0.0118,0,0,0.0059,0.0066,0.0064,0.007,0.0078,0.0057,0.0095,0.0094,0.0072,0.0104,0.0084,0.0135,0.0143,0.019,0.02,0.0194,0.028,0.025,0.0261,0.0194,0.0293,0.0312,0.0329,0.0119,0.0119,0.0119,0,0,0.0033,0.0049,0.0035,0.0031,0.0037,0.0038,0.0037,0.0051,0.0055,0.0048,0.0089,0.018,0.0166,0.0242,0.0268,0.0317,0.0314,0.033,0.0382,0.0484,0.0502,0.0517,0.0485,0.0496,0.0372,0.0372,0.0372,0,0.0023,0.0,0.0029,0.0007,-0.0011,0.0024,-0.0013,-0.0007,0.0001,0.0,0.0036,0.0129,0.0187,0.0288,0.0348,0.0353,0.0356,0.0356,0.0507,0.0521,0.0533,0.0497,0.0507,0.0381,0.038,0.0379,0.0378,0,-0.0024,-0.0045,-0.0052,-0.0077,-0.0091,-0.0112,-0.0109,-0.0113,-0.0088,-0.0071,0.0008,0.0138,0.0216,0.0297,0.0353,0.0501,0.0452,0.0499,0.0491,0.0565,0.0519,0.0527,0.0393,0.039,0.0387,0.0385,0,0,-0.0035,-0.0079,-0.0082,-0.0121,-0.0141,-0.0162,-0.0198,-0.0218,-0.0245,-0.0142,-0.0102,0.0073,0.0208,0.0245,0.0403,0.0536,0.0696,0.0584,0.0586,0.0578,0.0834,0.0732,0.0729,0.0812,0.0814,0.0816,0.0761,0,-0.0082,-0.0153,-0.0163,-0.0245,-0.0287,-0.0287,-0.0334,-0.0344,-0.0324,-0.0276,-0.0067,0.0038,0.0173,0.0321,0.0473,0.0639,0.0723,0.0697,0.0732,0.0728,0.0658,0.0739,0.0825,0.0766,0.0767,0.0769,0.0769,0,-0.0126,-0.0174,-0.0262,-0.035,-0.0368,-0.0415,-0.0485,-0.0518,-0.0459,-0.0401,-0.0228,-0.0071,0.0203,0.0322,0.0588,0.0578,0.0692,0.0794,0.0796,0.0628,0.0642,0.0674,0.0782,0.0781,0.078,0.0779,0.0778,0,-0.0162,-0.0245,-0.0325,-0.0354,-0.0441,-0.0487,-0.0531,-0.0558,-0.0585,-0.0424,-0.0366,-0.0093,0.011,0.0318,0.0535,0.0617,0.0727,0.0873,0.0828,0.0817,0.0848,0.0832,0.0987,0.0987,0.0987,0.0987,0.0987,0,-0.0214,-0.0276,-0.035,-0.0397,-0.0501,-0.0541,-0.0631,-0.0639,-0.0613,-0.0606,-0.038,-0.0265,0.0137,0.0261,0.0462,0.0608,0.0667,0.0795,0.0818,0.0913,0.0906,0.0851,0.0836,0.0985,0.0985,0.0986,0.0986,0,-0.0239,-0.0287,-0.0385,-0.0487,-0.0521,-0.0593,-0.0687,-0.0735,-0.0716,-0.0671,-0.0573,-0.0356,-0.0131,0.0067,0.0373,0.0491,0.0652,0.0649,0.0582,0.0605,0.0694,0.0688,0.0704,0.07,0.0697,0.0695,0.0693,0,-0.026,-0.0311,-0.0435,-0.0495,-0.0543,-0.0641,-0.0699,-0.074,-0.0759,-0.0732,-0.0669,-0.0487,-0.0306,-0.0067,0.0196,0.0433,0.0488,0.0506,0.0771,0.0655,0.0676,0.0675,0.0673,0.0688,0.0687,0.0686,0.0686,0,-0.0296,-0.0335,-0.0413,-0.0529,-0.0606,-0.0701,-0.077,-0.079,-0.0806,-0.079,-0.0701,-0.0526,-0.0352,-0.0049,0.0034,0.0242,0.0508,0.0479,0.0493,0.0744,0.0636,0.066,0.0662,0.0675,0.0677,0.0678,0.0678,0,-0.0309,-0.0364,-0.0456,-0.0559,-0.066,-0.0737,-0.0778,-0.0785,-0.0815,-0.0767,-0.0738,-0.0554,-0.0411,-0.0163,-0.0058,0.0099,0.0275,0.039,0.0413,0.0427,0.0394,0.0219,0.013,0,0,0,0,0,-0.0309,-0.0374,-0.0479,-0.0602,-0.0698,-0.0758,-0.0815,-0.0833,-0.0829,-0.0767,-0.0764,-0.0595,-0.0352,-0.0241,-0.0079,-0.0039,0.0296,0.0155,0.0439,0.0617,0.0629,0.0634,0,0,0,0,0,0,-0.0319,-0.0407,-0.0474,-0.0608,-0.069,-0.0796,-0.0833,-0.0834,-0.079,-0.076,-0.0622,-0.0561,-0.0315,-0.0447,-0.008,-0.0033,0.0171,0.0269,0.0272,0.061,0.0621,0.0631,0.064,0,0,0,0,0]}]]